Weather History for KOWD - November, 2013

Change the Weather History Date:

Sunday, November 3, 2013

  Actual Average (KBOS) Record (KBOS)
Temperature  
Mean Temperature 42 °F 48 °F  
Max Temperature 51 °F 56 °F 76 °F (1990)
Min Temperature 34 °F 41 °F 27 °F (1875)
Degree Days  
Heating Degree Days 22 17  
Month to date heating degree days 49  
Since 1 July heating degree days 496  
Cooling Degree Days 0 0  
Month to date cooling degree days 0  
Year to date cooling degree days 747  
Moisture  
Dew Point 31 °F    
Average Humidity 67    
Maximum Humidity 93    
Minimum Humidity 36    
Precipitation  
Precipitation 0.00 in 0.13 in 1.75 in (1954)
Month to date precipitation 0.39  
Year to date precipitation 36.39  
Sea Level Pressure  
Sea Level Pressure 30.07 in    
Wind  
Wind Speed 6 mph (NNW)    
Max Wind Speed 12 mph    
Max Gust Speed 18 mph    
Visibility 8 miles    
Events Rain    
T = Trace of Precipitation, MM = Missing Value Source: NWS Daily Summary

Daily Weather History Graph

Daily Weather History Graph

Search for Another Location

Airport or City:

Trip Planner

Search our weather history database for the weather conditions in past years. The results will help you decide how hot, cold, wet, or windy it might be!

Date:

Astronomy

Nov. 03, 2013 Rise Set
Actual Time 6:20 AM EST 4:35 PM EST
Civil Twilight 5:51 AM EST 5:04 PM EST
Nautical Twilight 5:17 AM EST 5:37 PM EST
Astronomical Twilight 4:45 AM EST 6:10 PM EST
Moon 6:21 AM EST (11/3) 4:47 PM EST (11/3)
Length of Visible Light 11h 13m
Length of Day
10h 15m
New Moon, 0% of the Moon is Illuminated
Nov 3
New Moon
Nov 10
First Quarter
Nov 17
Full
Nov 25
Last Quarter
Dec 2
New

Hourly Weather History & Observations

Time (EST) Temp. Windchill Dew Point Humidity Pressure Visibility Wind Dir Wind Speed Gust Speed Precip Events Conditions
12:53 AM 50.0 °F - 44.1 °F 80% 29.74 in 10.0 mi Calm Calm - N/A   Clear
1:53 AM 50.0 °F - 44.1 °F 80% 29.77 in 10.0 mi NNW 5.8 mph - N/A   Clear
1:53 AM 50.0 °F - 42.1 °F 74% 29.80 in 10.0 mi North 9.2 mph 16.1 mph N/A   Clear
2:53 AM 46.9 °F - 37.9 °F 71% 29.83 in 10.0 mi NW 11.5 mph - N/A   Overcast
3:06 AM 46.4 °F 42.4 °F 37.4 °F 71% 29.84 in 10.0 mi NNW 8.1 mph - N/A   Overcast
3:53 AM 46.0 °F 41.9 °F 35.1 °F 66% 29.86 in 10.0 mi North 8.1 mph - N/A   Overcast
4:53 AM 45.0 °F 41.2 °F 35.1 °F 68% 29.91 in 10.0 mi North 6.9 mph - N/A   Overcast
5:53 AM 42.1 °F 37.1 °F 37.0 °F 82% 29.95 in 5.0 mi North 8.1 mph - N/A   Haze
6:53 AM 42.1 °F 38.4 °F 37.0 °F 82% 29.98 in 10.0 mi NNW 5.8 mph - N/A   Overcast
7:40 AM 42.8 °F 40.1 °F 37.4 °F 81% 30.02 in 2.0 mi NNW 4.6 mph - N/A   Overcast
7:51 AM 41.0 °F 34.3 °F 37.4 °F 87% 30.03 in 2.0 mi NNW 11.5 mph 18.4 mph N/A   Overcast
7:53 AM 41.0 °F 35.2 °F 37.0 °F 86% 30.04 in 2.0 mi NNW 9.2 mph 18.4 mph N/A   Overcast
8:10 AM 39.2 °F 33.0 °F 37.4 °F 93% 30.04 in 3.0 mi NNW 9.2 mph - N/A   Overcast
8:53 AM 39.9 °F 35.8 °F 37.0 °F 89% 30.06 in 4.0 mi North 5.8 mph - 0.00 in Rain Light Rain
9:02 AM 39.2 °F 34.2 °F 37.4 °F 93% 30.06 in 4.0 mi Variable 6.9 mph - 0.00 in Rain Light Rain
9:53 AM 39.9 °F 35.8 °F 35.1 °F 83% 30.09 in 10.0 mi North 5.8 mph - 0.00 in   Overcast
10:53 AM 39.9 °F 35.8 °F 35.1 °F 83% 30.12 in 9.0 mi NNW 5.8 mph - N/A   Overcast
11:06 AM 41.0 °F 36.4 °F 35.6 °F 81% 30.11 in 10.0 mi North 6.9 mph - N/A   Overcast
11:46 AM 42.8 °F 37.5 °F 35.6 °F 76% 30.11 in 10.0 mi NNE 9.2 mph - N/A   Overcast
11:53 AM 42.1 °F 38.4 °F 35.1 °F 76% 30.11 in 10.0 mi NNE 5.8 mph - N/A   Overcast
12:23 PM 42.8 °F 37.5 °F 33.8 °F 70% 30.12 in 10.0 mi North 9.2 mph - N/A   Overcast
12:53 PM 44.1 °F 40.8 °F 33.1 °F 65% 30.13 in 10.0 mi Variable 5.8 mph - N/A   Overcast
1:53 PM 46.0 °F 41.9 °F 28.9 °F 51% 30.13 in 10.0 mi North 8.1 mph - N/A   Overcast
2:53 PM 46.0 °F 43.1 °F 28.0 °F 50% 30.16 in 10.0 mi North 5.8 mph - N/A   Partly Cloudy
3:53 PM 46.0 °F 43.9 °F 25.0 °F 44% 30.18 in 10.0 mi North 4.6 mph - N/A   Scattered Clouds
4:53 PM 42.1 °F 40.2 °F 17.1 °F 37% 30.21 in 10.0 mi NNW 3.5 mph - N/A   Clear
5:53 PM 39.9 °F 37.8 °F 16.0 °F 38% 30.25 in 10.0 mi NNW 3.5 mph - N/A   Clear
6:53 PM 39.0 °F 34.8 °F 14.0 °F 36% 30.28 in 10.0 mi North 5.8 mph - N/A   Clear
7:53 PM 37.0 °F 34.5 °F 12.0 °F 36% 30.31 in 10.0 mi NW 3.5 mph - N/A   Clear
8:53 PM 37.0 °F 31.0 °F 12.9 °F 37% 30.35 in 10.0 mi NNW 8.1 mph - N/A   Clear
9:53 PM 35.1 °F 30.1 °F 14.0 °F 42% 30.38 in 10.0 mi NNW 5.8 mph - N/A   Clear
10:53 PM 34.0 °F 28.8 °F 14.0 °F 44% 30.40 in 10.0 mi North 5.8 mph - N/A   Clear